Weather observations for the past three days for
Chicago, Chicago Midway Airport
Imperial (Metric)
Date Time (cdt) Wind (mph) Vis. (mi.) Weather Sky Cond. Temperature (ºF) Relative Humidity Wind Chill (°F) Heat Index (°F) Pressure Precipitation (in)
Air Dwpt 6 hour altimeter (in) sea level (mb) 1 hr 3 hr 6 hr
Max. Min.
22 18:53 W 15 G 24 10.00 A Few Clouds FEW250 75 39 77 73 27% 77 29.82 1009.0
22 17:53 W 20 G 29 10.00 A Few Clouds FEW060 FEW250 75.9 39 26% 77 29.79 1008.1
22 16:53 W 14 G 30 10.00 A Few Clouds FEW060 FEW250 77 43 30% 78 29.79 1008.1
22 15:53 W 14 G 31 10.00 A Few Clouds FEW060 FEW250 75.9 48 37% 78 29.8 1008.2
22 14:53 W 17 G 29 10.00 A Few Clouds FEW045 FEW250 75 48 39% 77 29.79 1007.9
22 13:53 W 18 G 31 10.00 A Few Clouds FEW045 FEW250 75 51.1 43% 78 29.79 1007.6
22 12:53 W 20 G 28 10.00 A Few Clouds FEW045 73.9 51.1 73.9 64 45% 29.78 1007.2
22 11:53 SW 18 G 30 10.00 A Few Clouds FEW040 72 51.1 48% 29.77 1007.2
22 10:53 W 14 G 24 10.00 A Few Clouds FEW035 71.1 53.1 53% 29.77 1007.2
22 09:53 W 15 10.00 A Few Clouds FEW035 68 52 57% 29.75 1006.6
22 08:53 W 17 G 30 10.00 A Few Clouds FEW026 66 51.1 59% 29.75 1006.5
22 07:53 W 21 G 35 10.00 Partly Cloudy and Breezy SCT026 64 52 65% 29.73 1005.7
22 06:53 W 21 G 31 10.00 Partly Cloudy and Breezy SCT024 64.9 53.1 81 64.9 66% 29.69 1004.4
22 05:53 W 14 G 25 10.00 Partly Cloudy SCT027 66 55 68% 29.67 1003.5
22 04:53 W 20 G 36 10.00 Partly Cloudy SCT038 66.9 55 66% 29.66 1003.3
22 03:53 W 22 G 32 10.00 A Few Clouds and Breezy FEW030 FEW045 70 57 64% 29.64 1002.6
22 02:53 SW 23 G 33 10.00 Mostly Cloudy and Breezy BKN043 77 61 58% 79 29.61 1001.3
22 01:53 SW 26 G 43 10.00 Mostly Cloudy and Windy BKN048 BKN060 80.1 59 49% 81 29.6 1000.8
22 00:53 SW 26 G 44 8.00 Overcast and Windy FEW023 SCT070 OVC250 81 57.9 88 81 45% 81 29.58 1000.4
21 23:53 SW 24 G 36 10.00 Overcast and Breezy SCT050 OVC250 82 64 55% 84 29.59 1000.7
21 22:53 S 22 G 41 10.00 Overcast and Breezy SCT200 OVC250 82.9 63 51% 84 29.57 1000.0
21 21:53 S 23 G 43 10.00 Overcast and Breezy SCT080 BKN200 OVC250 84 62.1 48% 85 29.6 1001.0
21 20:53 S 25 G 39 10.00 Mostly Cloudy and Breezy FEW065 SCT080 SCT200 BKN250 86 62.1 45% 87 29.59 1000.7
21 19:53 S 18 G 29 10.00 Mostly Cloudy FEW065 SCT090 SCT200 BKN250 86 62.1 45% 87 29.58 1000.5
21 18:53 S 20 G 35 10.00 Mostly Cloudy FEW070 SCT200 BKN250 89.1 61 91 86 39% 89 29.59 1001.0
21 17:53 S 23 G 36 10.00 Mostly Cloudy and Breezy FEW070 SCT200 BKN250 89.1 59 36% 88 29.59 1001.0
21 16:53 S 22 G 33 10.00 Mostly Cloudy and Breezy SCT070 BKN250 90 59 35% 89 29.63 1002.2
21 15:53 S 23 G 39 10.00 Mostly Cloudy and Breezy SCT065 SCT070 BKN200 BKN250 90 60.1 37% 90 29.67 1003.7
21 14:53 S 16 G 31 10.00 Mostly Cloudy SCT065 SCT075 BKN200 BKN250 90 61 38% 90 29.69 1004.5
21 13:53 S 21 G 32 10.00 Mostly Cloudy and Breezy SCT060 SCT075 SCT200 BKN250 89.1 62.1 41% 89 29.72 1005.5
21 12:53 S 20 G 29 10.00 Mostly Cloudy BKN055 BKN200 BKN250 86 62.1 87.1 64.9 45% 87 29.75 1006.4
21 11:53 S 14 G 25 10.00 Mostly Cloudy SCT045 SCT055 BKN200 BKN250 84.9 63 48% 86 29.77 1007.2
21 10:53 S 14 G 23 10.00 Mostly Cloudy SCT037 SCT200 BKN250 82.9 64.9 55% 85 29.8 1008.0
21 09:53 S 9 10.00 Partly Cloudy FEW200 SCT250 80.1 64.9 60% 82 29.79 1007.9
21 08:53 Vrbl 3 10.00 Partly Cloudy FEW200 SCT250 73.9 62.1 67% 29.83 1009.3
21 07:53 SE 6 10.00 Mostly Cloudy FEW005 FEW200 BKN250 69.1 61 76% 29.83 1009.4
21 06:53 E 8 10.00 Mostly Cloudy FEW005 FEW200 BKN250 64.9 59 64.9 63 81% 29.85 1010.0
21 05:53 E 10 9.00 Mostly Cloudy FEW005 FEW200 BKN250 63 57.9 84% 29.86 1010.1
21 04:53 E 9 10.00 Mostly Cloudy FEW120 BKN250 63 57.9 84% 29.84 1009.5
21 03:53 E 6 10.00 Mostly Cloudy BKN250 63 57.9 84% 29.85 1009.8
21 02:53 E 7 10.00 Mostly Cloudy FEW055 BKN250 64 57.9 81% 29.84 1009.7
21 01:53 E 8 10.00 Partly Cloudy SCT060 64.9 59 81% 29.86 1010.4
21 00:53 E 6 10.00 Partly Cloudy SCT055 64.9 59 82 64.9 81% 29.88 1011.1
20 23:53 E 10 10.00 Mostly Cloudy BKN060 BKN075 BKN250 70 60.1 71% 29.88 1010.9
20 22:53 NE 7 10.00 Mostly Cloudy SCT070 BKN250 73 59 62% 29.87 1010.5
20 21:53 NW 5 10.00 Mostly Cloudy FEW060 FEW110 SCT150 BKN250 73 57.9 59% 29.86 1010.0
20 20:53 NW 5 10.00 Mostly Cloudy FEW060 SCT100 BKN150 BKN200 75.9 57 52% 78 29.84 1009.4
20 19:53 NW 10 10.00 Mostly Cloudy FEW060 SCT100 BKN150 BKN200 79 57 47% 80 29.83 1009.1
20 18:53 W 10 10.00 Mostly Cloudy FEW060 SCT100 BKN150 BKN200 82 57.9 84.9 75.9 44% 82 29.81 1008.6 0.15
20 17:53 W 18 G 32 10.00 Mostly Cloudy FEW060 SCT100 BKN150 BKN200 82 55.9 41% 82 29.8 1008.2
20 16:53 W 18 G 33 10.00 Mostly Cloudy FEW030 FEW060 SCT090 BKN150 BKN200 82.9 60.1 46% 83 29.8 1008.1
20 15:53 SW 21 G 32 10.00 Mostly Cloudy and Breezy FEW060 BKN090 BKN150 BKN200 84.9 64 50% 86 29.78 1007.7 0.01 0.15
20 14:53 SW 16 10.00 Thunderstorm Light Rain FEW020 BKN060CB BKN110 OVC200 82 66 58% 84 29.79 1008.0 0.14
20 13:53 SW 18 G 31 10.00 Overcast BKN060 BKN075 BKN200 OVC250 84 62.1 48% 85 29.81 1008.5
20 12:53 S 20 G 31 10.00 Overcast FEW070 BKN200 OVC250 84.9 59 84.9 69.1 42% 85 29.83 1009.1
20 11:53 SW 17 G 30 10.00 Overcast FEW060 FEW170 BKN200 OVC250 84.9 57.9 40% 84 29.85 1009.9
20 10:53 SW 10 G 24 10.00 Mostly Cloudy FEW050 FEW170 SCT210 BKN250 84 62.1 48% 85 29.87 1010.7
20 09:53 SW 13 10.00 Mostly Cloudy FEW070 FEW170 SCT210 BKN250 82.9 64 53% 84 29.89 1011.1
20 08:53 S 9 10.00 Mostly Cloudy FEW070 FEW120 BKN210 BKN250 79 63 58% 81 29.89 1011.4
20 07:53 S 7 10.00 Mostly Cloudy FEW070 FEW120 BKN250 73.9 59 60% 29.9 1011.6
20 06:53 S 7 10.00 Mostly Cloudy FEW065 BKN110 BKN130 BKN250 69.1 52 69.1 63 55% 29.89 1011.5
20 05:53 SE 5 10.00 Mostly Cloudy BKN055 BKN170 BKN250 66 48.9 54% 29.89 1011.6
20 04:53 SE 5 10.00 Mostly Cloudy BKN170 BKN250 64 48 56% 29.9 1011.8
20 03:53 Calm 10.00 Mostly Cloudy BKN170 BKN250 64 46 52% 29.91 1012.2
20 02:53 SE 3 10.00 Mostly Cloudy BKN180 BKN250 64 45 50% 29.92 1012.4
20 01:53 E 3 10.00 Mostly Cloudy BKN080 BKN250 64.9 44.1 47% 29.94 1013.0
20 00:53 NE 5 10.00 Mostly Cloudy BKN180 BKN250 64 45 70 63 50% 29.95 1013.7
19 23:53 E 6 10.00 Partly Cloudy SCT250 64 45 50% 29.94 1013.2
19 22:53 NE 6 10.00 Partly Cloudy SCT250 64 44.1 48% 29.97 1014.1
19 21:53 E 7 10.00 Mostly Cloudy BKN250 64.9 43 45% 29.99 1014.6
19 20:53 E 8 10.00 Mostly Cloudy BKN250 66 42.1 42% 29.97 1014.1
19 19:53 E 8 10.00 Mostly Cloudy BKN250 68 41 38% 29.97 1014.1
Date Time (cdt) Wind (mph) Vis. (mi.) Weather Sky Cond. Air Dwpt Max. Min. Relative Humidity Wind Chill (°F) Heat Index (°F) altimeter (in) sea level (mb) 1 hr 3 hr 6 hr
6 hour
Temperature (ºF) Pressure Precipitation (in)